Hourly Weather Maszkow

Today, 9 May, Sunday

Time Temperature Precipitation Wind Pressure Humidity
00:00 +8°C° 0 mm 3 mps 758 mmHg 59%
01:00 +7°C° 0 mm 4 mps 758 mmHg 61%
02:00 +7°C° 0 mm 4 mps 757 mmHg 59%
03:00 +8°C° 0 mm 4 mps 757 mmHg 58%
04:00 +8°C° 0 mm 4 mps 756 mmHg 57%
05:00 +10°C° 0 mm 4 mps 756 mmHg 58%
06:00 +10°C° 0 mm 4 mps 756 mmHg 58%
07:00 +11°C° 0 mm 4 mps 756 mmHg 59%
08:00 +14°C° 0 mm 4 mps 756 mmHg 55%
09:00 +16°C° 0 mm 5 mps 756 mmHg 52%
10:00 +19°C° 0 mm 5 mps 756 mmHg 49%
11:00 +20°C° 0 mm 5 mps 755 mmHg 46%
12:00 +22°C° 0 mm 5 mps 755 mmHg 44%
13:00 +23°C° 0 mm 5 mps 755 mmHg 42%
14:00 +23°C° 0 mm 5 mps 755 mmHg 43%
15:00 +23°C° 0 mm 4 mps 755 mmHg 43%
16:00 +23°C° 0 mm 4 mps 754 mmHg 44%
17:00 +22°C° 0 mm 4 mps 754 mmHg 51%
18:00 +20°C° 0 mm 3 mps 754 mmHg 59%
19:00 +19°C° 0 mm 3 mps 754 mmHg 67%
20:00 +18°C° 0 mm 3 mps 754 mmHg 70%
21:00 +17°C° 0 mm 3 mps 754 mmHg 74%
22:00 +16°C° 0 mm 3 mps 755 mmHg 78%
23:00 +14°C° 0 mm 3 mps 755 mmHg 80%

Tomorrow, 10 May, Monday

Time Temperature Precipitation Wind Pressure Humidity
00:00 +13°C° 0 mm 3 mps 754 mmHg 82%
01:00 +12°C° 0 mm 3 mps 754 mmHg 84%
02:00 +11°C° 0 mm 3 mps 754 mmHg 85%
03:00 +10°C° 0 mm 3 mps 754 mmHg 85%
04:00 +10°C° 0 mm 3 mps 754 mmHg 86%
05:00 +11°C° 0 mm 3 mps 754 mmHg 79%
06:00 +13°C° 0 mm 4 mps 754 mmHg 71%
07:00 +14°C° 0 mm 4 mps 753 mmHg 64%
08:00 +16°C° 0 mm 5 mps 753 mmHg 59%
09:00 +17°C° 0 mm 5 mps 753 mmHg 55%
10:00 +20°C° 0 mm 6 mps 753 mmHg 50%
11:00 +21°C° 0 mm 5 mps 753 mmHg 48%
12:00 +23°C° 0 mm 5 mps 753 mmHg 46%
13:00 +25°C° 0 mm 4 mps 752 mmHg 44%
14:00 +25°C° 0 mm 4 mps 753 mmHg 45%
15:00 +26°C° 0 mm 4 mps 753 mmHg 45%
16:00 +27°C° 0 mm 4 mps 753 mmHg 45%
17:00 +25°C° 0 mm 3 mps 754 mmHg 53%
18:00 +24°C° 0 mm 3 mps 754 mmHg 62%
19:00 +21°C° 0 mm 2 mps 754 mmHg 70%
20:00 +20°C° 0 mm 2 mps 754 mmHg 74%
21:00 +19°C° 0 mm 2 mps 754 mmHg 78%
22:00 +18°C° 0 mm 2 mps 754 mmHg 81%
23:00 +17°C° 0 mm 2 mps 754 mmHg 84%

Day after tomorrow, 11 May, Tuesday

Time Temperature Precipitation Wind Pressure Humidity
00:00 +16°C° 0 mm 2 mps 754 mmHg 87%
01:00 +16°C° 0 mm 2 mps 753 mmHg 90%
02:00 +15°C° 0 mm 2 mps 753 mmHg 91%
03:00 +14°C° 0 mm 2 mps 753 mmHg 91%
04:00 +13°C° 0 mm 3 mps 753 mmHg 92%
05:00 +14°C° 0 mm 3 mps 752 mmHg 86%
06:00 +16°C° 0 mm 3 mps 752 mmHg 81%
07:00 +17°C° 0 mm 4 mps 752 mmHg 75%
08:00 +19°C° 0 mm 4 mps 752 mmHg 69%
09:00 +21°C° 0 mm 4 mps 751 mmHg 63%
10:00 +22°C° 0 mm 4 mps 751 mmHg 57%
11:00 +24°C° 0 mm 3 mps 751 mmHg 54%
12:00 +25°C° 0 mm 3 mps 751 mmHg 52%
13:00 +26°C° 0 mm 3 mps 751 mmHg 49%
14:00 +27°C° 0 mm 3 mps 750 mmHg 50%
15:00 +27°C° 0 mm 3 mps 750 mmHg 51%
16:00 +27°C° 0 mm 3 mps 750 mmHg 51%
17:00 +25°C° 0 mm 2 mps 750 mmHg 60%
18:00 +23°C° 0 mm 2 mps 750 mmHg 68%
19:00 +21°C° 0 mm 2 mps 750 mmHg 77%
20:00 +20°C° 0 mm 2 mps 750 mmHg 79%
21:00 +19°C° 0 mm 2 mps 751 mmHg 82%
22:00 +19°C° 0 mm 2 mps 751 mmHg 84%
23:00 +18°C° 0 mm 2 mps 750 mmHg 85%

12 May, Wednesday

Time Temperature Precipitation Wind Pressure Humidity
00:00 +18°C° 0 mm 3 mps 750 mmHg 86%
01:00 +17°C° 0 mm 3 mps 750 mmHg 87%
02:00 +17°C° 0 mm 3 mps 750 mmHg 88%
03:00 +16°C° 0 mm 3 mps 750 mmHg 89%
04:00 +16°C° 0 mm 3 mps 749 mmHg 90%
05:00 +17°C° 0 mm 4 mps 750 mmHg 84%
06:00 +18°C° 0 mm 4 mps 750 mmHg 79%
07:00 +19°C° 0 mm 4 mps 750 mmHg 74%
08:00 +20°C° 0 mm 4 mps 750 mmHg 68%
09:00 +22°C° 0 mm 4 mps 750 mmHg 63%
10:00 +25°C° 0 mm 4 mps 750 mmHg 57%
11:00 +25°C° 0.3 mm 4 mps 750 mmHg 58%
12:00 +25°C° 0.3 mm 3 mps 750 mmHg 59%
13:00 +25°C° 0.3 mm 3 mps 750 mmHg 60%
14:00 +25°C° 1 mm 3 mps 750 mmHg 63%
15:00 +24°C° 1 mm 3 mps 750 mmHg 66%
16:00 +24°C° 1 mm 3 mps 750 mmHg 69%
17:00 +21°C° 1.5 mm 3 mps 750 mmHg 76%
18:00 +19°C° 1.5 mm 3 mps 750 mmHg 83%
19:00 +17°C° 1.5 mm 3 mps 750 mmHg 90%
20:00 +17°C° 1.2 mm 3 mps 750 mmHg 92%
21:00 +16°C° 1.2 mm 3 mps 751 mmHg 94%
22:00 +15°C° 1.2 mm 2 mps 751 mmHg 96%
23:00 +15°C° 0.5 mm 2 mps 751 mmHg 96%

13 May, Thursday

Time Temperature Precipitation Wind Pressure Humidity
00:00 +14°C° 0.5 mm 2 mps 751 mmHg 96%
01:00 +14°C° 0.5 mm 2 mps 750 mmHg 97%
02:00 +14°C° 0.1 mm 2 mps 750 mmHg 96%
03:00 +14°C° 0.1 mm 2 mps 750 mmHg 96%
04:00 +14°C° 0.1 mm 1 mps 750 mmHg 96%
05:00 +14°C° 0 mm 2 mps 750 mmHg 94%
06:00 +14°C° 0 mm 2 mps 750 mmHg 93%
07:00 +14°C° 0 mm 2 mps 750 mmHg 91%
08:00 +14°C° 0 mm 3 mps 750 mmHg 83%
09:00 +16°C° 0 mm 3 mps 750 mmHg 76%
10:00 +18°C° 0 mm 3 mps 750 mmHg 68%
11:00 +18°C° 0.1 mm 3 mps 750 mmHg 68%
12:00 +17°C° 0.1 mm 3 mps 750 mmHg 68%
13:00 +17°C° 0.1 mm 3 mps 750 mmHg 68%
14:00 +17°C° 0.2 mm 3 mps 750 mmHg 70%
15:00 +17°C° 0.2 mm 2 mps 750 mmHg 73%
16:00 +16°C° 0.2 mm 2 mps 750 mmHg 75%
17:00 +16°C° 0.2 mm 2 mps 750 mmHg 79%
18:00 +15°C° 0.2 mm 2 mps 751 mmHg 82%
19:00 +14°C° 0.2 mm 2 mps 751 mmHg 86%
20:00 +13°C° 0 mm 1 mps 751 mmHg 89%
21:00 +13°C° 0 mm 1 mps 751 mmHg 91%
22:00 +12°C° 0 mm 1 mps 751 mmHg 94%
23:00 +11°C° 0 mm 1 mps 751 mmHg 95%

14 May, Friday

Time Temperature Precipitation Wind Pressure Humidity
00:00 +11°C° 0 mm 1 mps 751 mmHg 95%
01:00 +11°C° 0 mm 1 mps 751 mmHg 96%
02:00 +11°C° 0 mm 1 mps 751 mmHg 96%
03:00 +11°C° 0 mm 1 mps 751 mmHg 96%
04:00 +11°C° 0 mm 1 mps 751 mmHg 96%
05:00 +12°C° 0 mm 1 mps 751 mmHg 95%
06:00 +12°C° 0 mm 2 mps 751 mmHg 94%
07:00 +12°C° 0 mm 2 mps 751 mmHg 92%
08:00 +13°C° 0 mm 2 mps 751 mmHg 88%
09:00 +14°C° 0 mm 2 mps 751 mmHg 85%
10:00 +15°C° 0 mm 2 mps 751 mmHg 81%
11:00 +14°C° 0.1 mm 3 mps 752 mmHg 79%
12:00 +14°C° 0.1 mm 3 mps 752 mmHg 76%
13:00 +16°C° 0.1 mm 3 mps 752 mmHg 74%
14:00 +15°C° 0.1 mm 4 mps 752 mmHg 74%
15:00 +15°C° 0.1 mm 4 mps 752 mmHg 74%
16:00 +15°C° 0.1 mm 4 mps 752 mmHg 74%
17:00 +14°C° 0 mm 3 mps 752 mmHg 77%
18:00 +13°C° 0 mm 3 mps 753 mmHg 80%
19:00 +14°C° 0 mm 2 mps 753 mmHg 83%
20:00 +13°C° 0 mm 2 mps 753 mmHg 85%
21:00 +13°C° 0 mm 2 mps 753 mmHg 86%
22:00 +12°C° 0 mm 2 mps 754 mmHg 88%
23:00 +12°C° 0 mm 2 mps 754 mmHg 88%
Show more